Fredericksburg, TX

11:19 PM CDT on May 28, 2017 (GMT -0500)
Fredericksburg

Weather History for KT82 - October, 2013

Change the Weather History Date:

Sunday, October 6, 2013

  Actual Average (KSAT) Record (KSAT)
Temperature  
Mean Temperature 62 °F -  
Max Temperature 76 °F 83 °F 95 °F (1931)
Min Temperature 49 °F 63 °F 46 °F (1964)
Degree Days  
Heating Degree Days 2    
Growing Degree Days 12 (Base 50)    
Moisture  
Dew Point 42 °F    
Average Humidity 57    
Maximum Humidity 91    
Minimum Humidity 19    
Precipitation  
Precipitation 0.83 in - - ()
Sea Level Pressure  
Sea Level Pressure 30.14 in    
Wind  
Wind Speed 7 mph (North)    
Max Wind Speed 15 mph    
Max Gust Speed 26 mph    
Visibility 10 miles    
Events Rain , Thunderstorm    
Averages and records for this station are not official NWS values.
T = Trace of Precipitation, MM = Missing Value Source: NWS Daily Summary

Daily Weather History Graph

Daily Weather History Graph

Search for Another Location

Airport or City:

Trip Planner

Search our weather history database for the weather conditions in past years. The results will help you decide how hot, cold, wet, or windy it might be!

Date:

Astronomy

Oct. 06, 2013 Rise Set
Actual Time 7:32 AM CDT 7:14 PM CDT
Civil Twilight 7:08 AM CDT 7:38 PM CDT
Nautical Twilight 6:40 AM CDT 8:06 PM CDT
Astronomical Twilight 6:12 AM CDT 8:34 PM CDT
Moon 9:08 AM CDT (10/6) 8:26 PM CDT (10/6)
Length of Visible Light 12h 30m
Length of Day
11h 42m
Waxing Crescent, 3% of the Moon is Illuminated
Oct 6
Waxing Crescent
Oct 11
First Quarter
Oct 18
Full
Oct 26
Last Quarter
Nov 3
New

Hourly Weather History & Observations

Time (CDT) Temp. Dew Point Humidity Pressure Visibility Wind Dir Wind Speed Gust Speed Precip Events Conditions
12:15 AM 58.1 °F 42.1 °F 55% 30.10 in 10.0 mi NNE 9.2 mph - N/A   Mostly Cloudy
12:35 AM 58.3 °F 42.3 °F 55% 30.09 in 10.0 mi North 10.4 mph - N/A Thunderstorm Mostly Cloudy
12:55 AM 58.6 °F 43.0 °F 56% 30.09 in 10.0 mi NNE 11.5 mph 16.1 mph N/A Rain , Thunderstorm Light Thunderstorms and Rain
1:15 AM 54.1 °F 48.2 °F 80% 30.11 in 4.0 mi NNW 3.5 mph - 0.14 in Rain , Thunderstorm Heavy Thunderstorms and Rain
1:35 AM 52.3 °F 49.1 °F 89% 30.14 in 2.0 mi SSW 9.2 mph - 0.60 in Rain , Thunderstorm Heavy Thunderstorms and Rain
1:55 AM 52.2 °F 49.5 °F 91% 30.14 in 10.0 mi West 5.8 mph - 0.80 in Rain , Thunderstorm Thunderstorms and Rain
2:15 AM 52.7 °F 48.4 °F 85% 30.12 in 10.0 mi NNE 5.8 mph - 0.02 in Rain , Thunderstorm Light Thunderstorms and Rain
2:35 AM 53.2 °F 50.0 °F 89% 30.14 in 10.0 mi Calm Calm - 0.03 in Thunderstorm Overcast
2:55 AM 53.4 °F 50.0 °F 88% 30.12 in 10.0 mi East 3.5 mph - 0.03 in   Overcast
3:15 AM 53.8 °F 50.4 °F 88% 30.13 in 10.0 mi Calm Calm - N/A   Overcast
3:35 AM 54.1 °F 50.0 °F 86% 30.11 in 10.0 mi NNE 5.8 mph - N/A   Overcast
3:55 AM 54.0 °F 49.6 °F 85% 30.11 in 10.0 mi North 6.9 mph - N/A   Overcast
4:15 AM 53.1 °F 49.1 °F 86% 30.11 in 10.0 mi North 4.6 mph - N/A   Scattered Clouds
4:35 AM 52.3 °F 49.3 °F 89% 30.11 in 10.0 mi North 4.6 mph - N/A   Scattered Clouds
4:55 AM 52.0 °F 48.9 °F 89% 30.10 in 10.0 mi North 3.5 mph - N/A   Clear
5:15 AM 51.8 °F 48.2 °F 88% 30.11 in 10.0 mi NNW 4.6 mph - N/A   Clear
5:35 AM 51.4 °F 48.4 °F 89% 30.12 in 10.0 mi NNW 3.5 mph - N/A   Clear
5:55 AM 51.1 °F 48.2 °F 90% 30.13 in 10.0 mi NW 4.6 mph - N/A   Clear
6:15 AM 50.5 °F 47.7 °F 90% 30.13 in 10.0 mi NNW 5.8 mph - N/A   Clear
6:35 AM 50.0 °F 46.8 °F 89% 30.13 in 10.0 mi NNW 4.6 mph - N/A   Clear
6:55 AM 49.3 °F 46.0 °F 89% 30.14 in 10.0 mi NNW 3.5 mph - N/A   Clear
7:15 AM 49.6 °F 46.0 °F 87% 30.14 in 10.0 mi Calm Calm - N/A   Clear
7:35 AM 50.0 °F 46.0 °F 86% 30.14 in 10.0 mi NW 4.6 mph - N/A   Clear
7:55 AM 49.8 °F 46.0 °F 87% 30.15 in 10.0 mi NNW 4.6 mph - N/A   Clear
8:15 AM 50.9 °F 45.9 °F 83% 30.16 in 10.0 mi NNW 8.1 mph - N/A   Clear
8:35 AM 51.8 °F 46.6 °F 82% 30.15 in 10.0 mi NNW 6.9 mph - N/A   Clear
8:55 AM 53.6 °F 46.9 °F 78% 30.16 in 10.0 mi NNW 6.9 mph - N/A   Clear
9:15 AM 55.6 °F 47.7 °F 75% 30.16 in 10.0 mi NNW 8.1 mph - N/A   Clear
9:35 AM 59.0 °F 45.0 °F 60% 30.17 in 10.0 mi North 8.1 mph - N/A   Clear
9:55 AM 61.0 °F 44.2 °F 54% 30.18 in 10.0 mi NNW 6.9 mph - N/A   Clear
10:15 AM 63.5 °F 41.9 °F 45% 30.18 in 10.0 mi North 10.4 mph - N/A   Clear
10:35 AM 64.8 °F 39.7 °F 40% 30.18 in 10.0 mi North 10.4 mph - N/A   Clear
10:55 AM 66.6 °F 39.7 °F 37% 30.19 in 10.0 mi North 9.2 mph - N/A   Clear
11:15 AM 68.4 °F 39.0 °F 34% 30.19 in 10.0 mi North 10.4 mph - N/A   Clear
11:35 AM 69.6 °F 36.0 °F 29% 30.19 in 10.0 mi NNE 10.4 mph - N/A   Clear
11:55 AM 70.2 °F 35.2 °F 28% 30.19 in 10.0 mi NNE 13.8 mph 21.9 mph N/A   Clear
12:15 PM 70.7 °F 34.7 °F 27% 30.19 in 10.0 mi North 15.0 mph 26.5 mph N/A   Clear
12:35 PM 70.9 °F 34.7 °F 26% 30.18 in 10.0 mi NNE 11.5 mph 23.0 mph N/A   Clear
12:55 PM 71.6 °F 37.8 °F 29% 30.18 in 10.0 mi NNW 12.7 mph 17.3 mph N/A   Clear
1:15 PM 72.3 °F 37.6 °F 28% 30.17 in 10.0 mi NE 10.4 mph 19.6 mph N/A   Clear
1:35 PM 72.5 °F 35.6 °F 26% 30.16 in 10.0 mi NE 11.5 mph - N/A   Clear
1:55 PM 73.9 °F 34.0 °F 23% 30.15 in 10.0 mi North 11.5 mph - N/A   Clear
2:15 PM 74.5 °F 34.2 °F 23% 30.14 in 10.0 mi NNE 13.8 mph 17.3 mph N/A   Clear
2:35 PM 74.5 °F 33.1 °F 22% 30.14 in 10.0 mi NNE 12.7 mph 17.3 mph N/A   Clear
2:55 PM 75.2 °F 32.9 °F 21% 30.13 in 10.0 mi NNW 12.7 mph - N/A   Clear
3:15 PM 75.7 °F 33.1 °F 21% 30.12 in 10.0 mi North 9.2 mph - N/A   Clear
3:35 PM 75.9 °F 31.1 °F 19% 30.12 in 10.0 mi North 11.5 mph 19.6 mph N/A   Clear
3:55 PM 75.9 °F 32.9 °F 21% 30.12 in 10.0 mi North 9.2 mph 17.3 mph N/A   Clear
4:15 PM 76.1 °F 31.6 °F 20% 30.11 in 10.0 mi NNW 9.2 mph 16.1 mph N/A   Clear
4:35 PM 75.9 °F 30.9 °F 19% 30.11 in 10.0 mi North 6.9 mph - N/A   Clear
4:55 PM 76.1 °F 33.1 °F 21% 30.11 in 10.0 mi NNE 9.2 mph - N/A   Clear
5:15 PM 76.1 °F 34.2 °F 22% 30.11 in 10.0 mi North 10.4 mph - N/A   Clear
5:35 PM 75.7 °F 32.2 °F 20% 30.11 in 10.0 mi North 10.4 mph - N/A   Clear
5:55 PM 75.4 °F 32.9 °F 21% 30.11 in 10.0 mi North 8.1 mph - N/A   Clear
6:15 PM 74.8 °F 33.8 °F 22% 30.11 in 10.0 mi NNE 5.8 mph - N/A   Clear
6:35 PM 73.6 °F 34.2 °F 24% 30.11 in 10.0 mi North 5.8 mph - N/A   Clear
6:55 PM 71.1 °F 36.1 °F 28% 30.12 in 10.0 mi NNE 4.6 mph - N/A   Clear
7:15 PM 67.3 °F 39.4 °F 36% 30.12 in 10.0 mi NNE 3.5 mph - N/A   Clear
7:35 PM 64.4 °F 44.2 °F 48% 30.12 in 10.0 mi NNE 3.5 mph - N/A   Clear
7:55 PM 63.9 °F 44.1 °F 49% 30.14 in 10.0 mi Calm Calm - N/A   Clear
8:15 PM 60.3 °F 46.6 °F 61% 30.14 in 10.0 mi NNW 4.6 mph - N/A   Clear
8:35 PM 59.0 °F 46.6 °F 63% 30.14 in 10.0 mi Calm Calm - N/A   Clear
8:55 PM 57.6 °F 46.6 °F 67% 30.16 in 10.0 mi Calm Calm - N/A   Clear
9:15 PM 57.0 °F 45.7 °F 66% 30.16 in 10.0 mi NNW 4.6 mph - N/A   Clear
9:35 PM 55.6 °F 45.7 °F 69% 30.17 in 10.0 mi Calm Calm - N/A   Clear
9:55 PM 56.7 °F 43.9 °F 62% 30.17 in 10.0 mi Calm Calm - N/A   Clear
10:15 PM 55.4 °F 44.6 °F 67% 30.17 in 10.0 mi Calm Calm - N/A   Clear
10:35 PM 54.5 °F 43.9 °F 67% 30.18 in 10.0 mi Calm Calm - N/A   Clear
10:55 PM 52.9 °F 46.2 °F 78% 30.18 in 10.0 mi Calm Calm - N/A   Clear
11:15 PM 52.9 °F 45.9 °F 77% 30.17 in 10.0 mi WNW 3.5 mph - N/A   Clear
11:35 PM 52.9 °F 45.9 °F 77% 30.17 in 10.0 mi Calm Calm - N/A   Clear
11:55 PM 51.8 °F 46.0 °F 81% 30.17 in 10.0 mi WNW 4.6 mph - N/A   Clear